Location: Unspecified
(50.0000°N, 15.0000°E)
Time: 19:26:46
(UTC+00:00)

ISS - Visible Passes

Search period start: 02 October 2022 00:00
Search period end: 12 October 2022 00:00
Orbit: 416 x 419 km, 51.6° (Epoch: 02 October)

Date Brightness Start Highest point End Pass type
(mag) Time Alt. Az. Time Alt. Az. Time Alt. Az.
02 Oct -2.4 17:44:24 10° W 17:47:31 35° SSW 17:50:14 12° SSE visible
03 Oct -0.9 18:34:31 10° WSW 18:35:40 11° SW 18:36:48 10° SSW visible
04 Oct -1.2 17:45:28 10° W 17:47:46 17° SW 17:50:03 10° S visible
07 Oct -0.6 16:58:28 10° WSW 16:59:47 12° SW 17:01:06 10° SSW visible
